ROMMA est une association bénévole à but non lucratif. Votre soutien est indispensable : ADHERER à ROMMA ou FAIRE un DON

Marignier - (74, Haute-Savoie)

Vallée de l'Arve (470 m)   Longitude: 06° 30' E   Latitude: 46° 05' N Station partenaire n°130
 

Détail journalier du     <<     >>

Température Precipitation Humidité Pression Vent Dir Rafale Dir. rafale
Heure (°C) (mm) (%) (hPa) (km/h) (km/h)
01:00 1.908710118O26O
02:00 2.108210116O21N
03:00 1.608610127O21O
04:00 1.608710125O16NO
05:00 1.808410123O15OSO
06:00 2.407710123SO15SO
07:00 3.107410123NNE18NO
08:00 3.207510133NO19O
09:00 3.50.27610133N18NNE
10:00 4.107410134N18N
11:00 4.507010146N32N
12:00 4.9067101410N37NNE
13:00 6.406210149N40NNE
14:00 7.1061101510N34N
15:00 6.906310159N29NNE
16:00 7.3059101510N37N
17:00 8.405210168N27NNE
18:00 7.505510167N24NO
19:00 7.405310165N23NE
20:00 6.705510175N24N
21:00 5.805610172N15E
22:00 5.705410173N21NNE
23:00 5.605310174N18N
minuit 4.106610171NNE13N

Graphique du 05-05-2019

 

Serveur OMMA